STARLINK-5344 (55494 NORAD) Tracking and Keplerian Element Data

This shows tracking and keplerian element data for the satellite.

Feedback or suggestion? Click here.




ElementValue
Catalog55494
NameSTARLINK-5344
Epoch Orbit130
Epoch Day84.91667824
Epoch Year2023
RAAN85.9294
Inclination43.0003
Eccentricity0.0001239
Argument of Perigee257.4028
Mean Anonmoly358.5096
Mean Motion15.04463894
Decay Rate0.00043365
L11 55494U 23015AX 23084.91667824 .00043365 00000+0 30452-2 0 9994
L22 55494 43.0003 85.9294 0001239 257.4028 358.5096 15.04463894 1303



Live tracking and technical data element details for STARLINK-5344 (NORAD 55494). STARLINK-5344 can be tracked NOW for your location showing map with azimuth and elevation plus other details from your city location.







IsCatalogInMostPopularTable: catalog: 55494, numindb: -1

Insert: records affected: 1


GetName: 55494 STARLINK-5344

Hit Count: inserted at: Tue, 28 Mar 2023 03:10:06 GMT